Torna al catalogo

SVOM

AttivoScienzaLEO
NORAD 60088·PAYLOAD·🇨🇳 China
Questo nome del satellite non è ancora stato confermato da fonti ufficiali.

Lanciato Jun 22, 2024 da Xichang Satellite Launch Center

Loading…

Prossimi Passaggi (prossime 24 ore)

TLE

AggiornatoSource: Space-Track

Epoca: Sep 14, 2026, 10:50 UTC

1 60088U 24116A   26257.45159488  .00001438  00000-0  14970-3 0  9992
2 60088  28.9949 265.5732 0003806 254.7263 105.2911 14.85124143120949

Traccia SVOM in tempo reale con AllMySat

Download on the App Store